Simultaneous Nadir Overpasses (SNOs) Predictions

Prediction of SNOs between TERRA and METOP-C Satellite Orbit:

Table of predicted SNOs for the next 14.0 days since TLE Epoch: 9/7/2024
Index Date (TERRA) Time (TERRA) Lat,Lon (TERRA) SZA (TERRA ) Date (METOP-C) Time (METOP-C) Lat,Lon (METOP-C) SZA (METOP-C ) Distance(km) Time Diff (sec)
1 09/08/2024 17:07:22 73.33, -83.39 68.02 09/08/2024 17:07:03 73.32, -83.44 68.01 1.58 19
2 09/08/2024 17:56:18 -74.67, 87.22 110.70 09/08/2024 17:57:17 -74.66, 87.19 110.71 1.04 59
3 09/11/2024 07:37:24 73.48, 59.36 69.14 09/11/2024 07:37:21 73.47, 59.32 69.14 1.46 3
4 09/11/2024 08:25:44 -76.61,-124.82 107.77 09/11/2024 08:26:58 -76.53,-124.46 107.84 13.01 74
5 09/13/2024 21:18:39 -71.82, 31.06 111.43 09/13/2024 21:17:34 -71.81, 31.00 111.42 2.75 65
6 09/13/2024 22:07:23 73.69,-157.75 70.33 09/13/2024 22:07:37 73.70,-157.74 70.34 0.49 14
7 09/16/2024 11:48:32 -72.27, 174.29 110.02 09/16/2024 11:47:45 -72.27, 174.30 110.01 0.20 47
8 09/16/2024 12:37:24 73.70, -15.28 71.34 09/16/2024 12:37:57 73.69, -15.33 71.33 1.73 33
9 09/19/2024 02:18:29 -72.35, -43.11 108.95 09/19/2024 02:18:02 -72.35, -43.13 108.95 0.94 27



Historial Predications of SNOs between TERRA and METOP-C
